[[{"header":{"parameterUnit":"m.s-1","parameterCategory":1,"la1":30.2991,"la2":30.254,"lo1":-89.0895,"lo2":-89.0444,"dy":0.0017,"dx":0.0017,"nx":28,"ny":28,"refTime":"2023-08-13T03:00:00:Z","depth":0,"parameterNumber":2,"parameterNumberName":"U-component_of_WINDS"},"data":[0,0,0,0,0,0,0,0,0,0,0,0,0,0,0,0,0,0,0,0,0,0,0,0,0,0,0,0,0,0,0,0,0,0,0,0,0,0,0,0,0,0,0,0,0,0,0,0,0,0,0,0,0,0,0,0,0,0,0.9434,0.9435,0,0.9529,0.953,0.9531,0.9543,0.9542,0.9541,0.9541,0.9643,0.9646,0.965,0,0,0,0,0,0,0,0,0,0,0,0,0,0.9268,0.9271,0.9434,0.9435,0.9436,0.9529,0.953,0.9531,0.9543,0.9542,0.9541,0.954,0.9641,0.9646,0.965,0,0,0,0,0,0,0,0,0,0,0,0,0,0.9349,0.9272,0.9434,0.9453,0.9456,0.9528,0.953,0.9532,0.9544,0.9542,0.9541,0.954,0.964,0.9645,0.9651,0.9711,0,0,0.9667,0.9669,0,0,0,0,0,0,0,0,0.9344,0.9355,0.9449,0.9452,0.9455,0.9523,0.9509,0.9592,0.9544,0.9511,0.9541,0.9539,0.9604,0.9612,0.9633,0.9716,0.9721,0.9667,0.9671,0.9673,0.9675,0,0,0,0,0,0,0,0.9339,0.9351,0.9472,0.9451,0.9454,0.9459,0.9469,0.9525,0.9564,0.9513,0.9514,0.9525,0.9606,0.9628,0.9636,0.9722,0.9667,0.9672,0.9675,0.9677,0.986,0.9861,0,0,0,0,0,0,0.9329,0.9346,0.9469,0.9475,0.9395,0.9463,0.9474,0.9503,0.9564,0.9571,0.9526,0.9526,0.962,0.963,0.964,0.9715,0.9673,0.9678,0.9681,0.9858,0.986,0.9862,0,0,0,0,0,0,0.9325,0.934,0.9465,0.9411,0.9427,0.9467,0.9499,0.9505,0.9528,0.9573,0.9581,0.9542,0.9619,0.9632,0.9693,0.9719,0.968,0.9685,0.9856,0.9859,0.9861,0.9866,0,0,0,0,0,0,0.932,0.9338,0.9361,0.9411,0.943,0.9516,0.9501,0.9508,0.9536,0.9536,0.959,0.9598,0.9619,0.9685,0.9698,0.9726,0.9689,0.9854,0.9858,0.986,0.9864,0.9869,0.9873,0,0,0,0,0,0.9315,0.936,0.9362,0.9377,0.9459,0.9517,0.9528,0.955,0.9538,0.9562,0.9591,0.9596,0.9713,0.9691,0.9706,0.9735,0.9853,0.9857,0.986,0.9862,0.9868,0.9873,0,0,0,0,0,0,0.9313,0.9367,0.937,0.9432,0.947,0.9519,0.955,0.9555,0.9598,0.9597,0.9624,0.9636,0.9696,0.9722,0.9696,0.9798,0.9782,0.9789,0.9779,0.9784,0.9788,0.9782,0.9694,0,0,0,0,0,0.932,0.9361,0.9406,0.9457,0.9476,0.9509,0.9536,0.9549,0.959,0.9607,0.964,0.9681,0.9727,0.9757,0.9802,0.9868,0.988,0.9895,0.9899,0.9902,0.9909,0.9946,0.9953,0.9874,0.9874,0.9874,0,0,0.9335,0.9369,0.9394,0.9458,0.9489,0.9532,0.9523,0.957,0.9603,0.9614,0.9674,0.97,0.9747,0.981,0.984,0.9834,0.9933,0.9907,0.9909,0.9914,0.995,0.9957,0.9964,0.9877,0.9876,0.9876,0,0,0.9385,0.9414,0.946,0.949,0.9536,0.9558,0.9569,0.9617,0.9634,0.9694,0.9703,0.9744,0.9823,0.9856,0.9883,0.9944,0.995,0.9958,0.9981,1.0016,1.0023,1.0028,1.0051,1.0058,0.9964,0.9964,0.9964,0,0.9398,0.9463,0.9483,0.9529,0.9557,0.9568,0.9615,0.9644,0.9703,0.9723,0.9714,0.9813,0.9845,0.9917,0.9932,0.9953,0.9967,0.9953,1.002,1.0026,1.0031,1.0053,1.0061,0.9964,0.9964,0.9964,0.9964,0,0.9477,0.9522,0.9553,0.9608,0.964,0.9686,0.9715,0.9745,0.9755,0.9778,0.9839,0.9878,0.9931,0.9949,0.9961,1.0023,1.0017,1.0014,0.9999,1.0039,1.006,1.0069,0.9965,0.9965,0.9965,0.9965,0,0,0.953,0.9594,0.9606,0.963,0.9681,0.9717,0.9764,0.9814,0.984,0.988,0.9921,0.9987,0.9984,1.0014,1.003,1.0061,1.0107,1.0054,1.0056,1.0063,1.0179,1.0181,1.0191,1.0111,1.0113,1.0114,1.0175,0,0.9586,0.9669,0.9688,0.976,0.9802,0.9812,0.9853,0.9889,0.9912,0.9952,0.9978,1.0024,1.0016,1.0035,1.0066,1.0095,1.0131,1.0091,1.0151,1.0153,1.014,1.0201,1.0205,1.026,1.0183,1.0185,1.0186,0,0.9663,0.9703,0.9778,0.9823,0.9841,0.9878,0.9925,0.9963,1.0005,1.0019,1.0053,1.0065,1.0115,1.0097,1.0168,1.014,1.0165,1.0183,1.0186,1.0194,1.0172,1.0211,1.0278,1.0287,1.0199,1.0197,1.0197,0,0.9695,0.9767,0.9822,0.9843,0.9896,0.9922,0.9946,0.9986,1.0015,1.0056,1.0075,1.0123,1.015,1.0187,1.0212,1.0196,1.0281,1.0264,1.0295,1.0295,1.0314,1.0312,1.0387,1.0329,1.0328,1.0328,1.0328,0,0.9756,0.9802,0.9837,0.987,0.9922,0.9944,0.9995,1.002,1.0055,1.0095,1.0106,1.0143,1.0173,1.0215,1.0235,1.0291,1.0303,1.0316,1.0321,1.0316,1.0314,1.0334,1.0331,1.0331,1.033,1.033,1.0329,0,0.9801,0.9826,0.9886,0.9931,0.9943,0.998,1.0019,1.0053,1.0075,1.0125,1.0138,1.0173,1.0223,1.0251,1.0313,1.0327,1.0389,1.0392,1.0375,1.0377,1.0406,1.0404,1.0497,1.051,1.0442,1.0443,1.0444,0,0.9839,0.9874,0.9922,0.9949,0.9972,1.0015,1.0044,1.0067,1.0097,1.0146,1.0174,1.0224,1.0265,1.0343,1.0376,1.0424,1.0428,1.0457,1.0436,1.0429,1.043,1.0427,1.0431,1.0462,1.0462,1.0463,1.0463,0,0.9903,0.9914,0.9954,0.9999,1.0032,1.0069,1.0106,1.0127,1.0156,1.0189,1.0239,1.027,1.0333,1.0383,1.0433,1.0459,1.0467,1.0469,1.0479,1.0475,1.0463,1.047,1.0386,1.0468,1.0467,1.0467,1.0467,1.0466,0.9947,0.9978,1.0017,1.0062,1.0091,1.0125,1.0158,1.0184,1.0225,1.0277,1.0288,1.0341,1.0382,1.045,1.0477,1.0519,1.0514,1.0528,1.0532,1.0535,1.0536,1.0455,1.0528,1.0528,1.0528,1.0528,1.0528,0,1.0013,1.0037,1.0078,1.0128,1.0163,1.0165,1.0205,1.0235,1.028,1.0317,1.0356,1.0413,1.0461,1.0497,1.0546,1.0573,1.0577,1.0585,1.0584,1.059,1.0538,1.0525,1.058,1.058,1.058,1.058,1.058,1.058,1.0051,1.0105,1.012,1.0188,1.0214,1.0264,1.0287,1.0318,1.0347,1.041,1.0449,1.0471,1.0507,1.0559,1.0603,1.0612,1.063,1.0637,1.0647,1.0599,1.0593,1.0588,1.0576,1.0641,1.0641,1.0696,1.0696,1.0696]},{"header":{"parameterUnit":"m.s-1","parameterCategory":1,"la1":30.2991,"la2":30.254,"lo1":-89.0895,"lo2":-89.0444,"dy":0.0017,"dx":0.0017,"nx":28,"ny":28,"refTime":"2023-08-13T03:00:00:Z","depth":0,"parameterNumber":3,"parameterNumberName":"V-component_of_WINDS"},"data":[0,0,0,0,0,0,0,0,0,0,0,0,0,0,0,0,0,0,0,0,0,0,0,0,0,0,0,0,0,0,0,0,0,0,0,0,0,0,0,0,0,0,0,0,0,0,0,0,0,0,0,0,0,0,0,0,0,0,3.0895,3.0895,0,3.0915,3.0915,3.0915,3.0935,3.0936,3.0936,3.0936,3.0953,3.0953,3.0954,0,0,0,0,0,0,0,0,0,0,0,0,0,3.087,3.087,3.0895,3.0895,3.0895,3.0915,3.0915,3.0915,3.0935,3.0936,3.0936,3.0936,3.0953,3.0953,3.0954,0,0,0,0,0,0,0,0,0,0,0,0,0,3.0884,3.087,3.0895,3.0908,3.0909,3.0915,3.0915,3.0915,3.0935,3.0936,3.0936,3.0936,3.0953,3.0953,3.0954,3.0947,0,0,3.0955,3.0955,0,0,0,0,0,0,0,0,3.0883,3.0885,3.0906,3.0907,3.0908,3.0923,3.0912,3.0926,3.0935,3.0925,3.0936,3.0937,3.0943,3.0944,3.0947,3.0948,3.0948,3.0955,3.0955,3.0955,3.0955,0,0,0,0,0,0,0,3.0882,3.0884,3.0903,3.0906,3.0908,3.0911,3.0914,3.0915,3.0931,3.0926,3.0928,3.093,3.0943,3.0946,3.0947,3.0949,3.0955,3.0955,3.0955,3.0955,3.0942,3.0941,0,0,0,0,0,0,3.088,3.0883,3.0902,3.0903,3.0897,3.0911,3.0914,3.0918,3.0931,3.0934,3.0929,3.0931,3.0945,3.0947,3.0948,3.0939,3.0955,3.0955,3.0955,3.0942,3.0942,3.0941,0,0,0,0,0,0,3.0879,3.0881,3.0901,3.0894,3.0896,3.0911,3.0915,3.0918,3.0921,3.0934,3.0936,3.093,3.0946,3.0947,3.0946,3.094,3.0955,3.0956,3.0943,3.0942,3.0941,3.0922,0,0,0,0,0,0,3.0878,3.0881,3.088,3.0893,3.0897,3.0901,3.0915,3.0918,3.0922,3.0923,3.0935,3.0937,3.0946,3.0946,3.0947,3.094,3.0956,3.0944,3.0943,3.0942,3.0923,3.092,3.0918,0,0,0,0,0,3.0877,3.0874,3.088,3.0882,3.0896,3.0901,3.0902,3.0914,3.0921,3.0919,3.0927,3.0936,3.094,3.0946,3.0947,3.094,3.0944,3.0943,3.0942,3.0924,3.0921,3.0918,0,0,0,0,0,0,3.0858,3.0876,3.0883,3.0884,3.089,3.0904,3.0902,3.0911,3.0916,3.0917,3.093,3.0933,3.0929,3.0935,3.0941,3.0933,3.0943,3.0942,3.0929,3.0926,3.0924,3.0922,3.0956,0,0,0,0,0,3.0854,3.0858,3.0873,3.0872,3.0875,3.0888,3.089,3.0899,3.0906,3.0909,3.0917,3.0923,3.0925,3.0926,3.0929,3.0924,3.0925,3.092,3.0917,3.0915,3.0914,3.0908,3.0905,3.0937,3.0937,3.0937,0,0,3.0846,3.0856,3.0857,3.0868,3.0875,3.0876,3.089,3.0892,3.0893,3.0909,3.0908,3.0914,3.0921,3.0917,3.0916,3.0922,3.0905,3.0913,3.0912,3.0911,3.0907,3.0903,3.0901,3.0937,3.0937,3.0937,0,0,3.0831,3.084,3.0839,3.0845,3.0855,3.0863,3.0862,3.0874,3.0879,3.0879,3.089,3.089,3.0894,3.0898,3.09,3.0884,3.0892,3.0884,3.0871,3.0866,3.0863,3.0861,3.0853,3.085,3.0883,3.0883,3.0883,0,3.082,3.0824,3.0838,3.0838,3.0841,3.0856,3.0854,3.0858,3.0868,3.0869,3.0875,3.0879,3.0885,3.0881,3.0876,3.0879,3.0877,3.0883,3.0863,3.0861,3.0859,3.0851,3.0848,3.0882,3.0882,3.0882,3.0882,0,3.0808,3.081,3.0808,3.0817,3.082,3.0819,3.083,3.0831,3.0839,3.0845,3.0843,3.085,3.0854,3.0854,3.0861,3.0849,3.0852,3.0861,3.0871,3.0854,3.0847,3.0844,3.0881,3.0881,3.0881,3.0882,0,0,3.0784,3.0798,3.0797,3.08,3.081,3.0812,3.081,3.0814,3.0813,3.0818,3.0816,3.0818,3.0824,3.0827,3.0835,3.083,3.0813,3.0838,3.0839,3.0832,3.0798,3.079,3.0787,3.0819,3.0818,3.0818,3.0796,0,3.077,3.0769,3.078,3.0776,3.0776,3.0789,3.0787,3.0792,3.0797,3.0797,3.0803,3.0803,3.0814,3.0815,3.0811,3.0816,3.0806,3.0818,3.0814,3.0814,3.0811,3.0784,3.0777,3.0756,3.0794,3.0793,3.0793,0,3.0754,3.0758,3.0754,3.0762,3.0762,3.0761,3.0763,3.0764,3.0768,3.0773,3.0774,3.0782,3.0779,3.0789,3.0783,3.0791,3.0789,3.0791,3.0791,3.079,3.0802,3.078,3.075,3.0746,3.0789,3.079,3.079,0,3.0734,3.0739,3.0736,3.0738,3.0748,3.0746,3.0749,3.0755,3.0755,3.0757,3.0757,3.0758,3.0758,3.0757,3.0764,3.0772,3.0756,3.0768,3.0757,3.0757,3.0753,3.0753,3.0721,3.0755,3.0755,3.0755,3.0755,0,3.0718,3.0714,3.0727,3.0725,3.072,3.0731,3.0726,3.073,3.0734,3.0732,3.0742,3.0739,3.075,3.0747,3.0753,3.0745,3.0745,3.0747,3.0748,3.0745,3.0745,3.0744,3.0745,3.0754,3.0754,3.0754,3.0754,0,3.0695,3.0704,3.0701,3.071,3.0712,3.0708,3.0714,3.0711,3.0717,3.0713,3.0713,3.0721,3.0718,3.0725,3.0724,3.0727,3.0715,3.0719,3.0714,3.0714,3.0702,3.0703,3.0667,3.0662,3.0701,3.07,3.07,0,3.0683,3.0681,3.0688,3.0688,3.069,3.069,3.069,3.0699,3.0699,3.0701,3.0698,3.0696,3.0695,3.0689,3.0694,3.0692,3.0695,3.0682,3.0694,3.069,3.0692,3.0691,3.069,3.068,3.0679,3.0679,3.0678,0,3.0661,3.0664,3.0665,3.0666,3.0666,3.0667,3.0669,3.0667,3.0677,3.0675,3.0672,3.0671,3.0669,3.0666,3.0664,3.0666,3.0672,3.0674,3.0671,3.0668,3.0664,3.0663,3.0705,3.0675,3.0676,3.0676,3.0676,3.0676,3.0642,3.0639,3.0643,3.0642,3.0644,3.0645,3.0642,3.0646,3.0644,3.0643,3.0649,3.0644,3.0645,3.0643,3.0644,3.0639,3.0644,3.064,3.0639,3.0637,3.0634,3.0665,3.0639,3.0639,3.0639,3.0639,3.0639,0,3.0618,3.0621,3.062,3.0622,3.062,3.0627,3.0628,3.0626,3.0622,3.0623,3.0621,3.0616,3.0612,3.0615,3.0612,3.0606,3.0609,3.0605,3.0605,3.0604,3.0631,3.0633,3.0603,3.0603,3.0603,3.0603,3.0603,3.0603,3.0606,3.06,3.0604,3.0598,3.06,3.0596,3.0596,3.0595,3.0596,3.059,3.0586,3.0589,3.0589,3.0585,3.0581,3.0582,3.0579,3.0573,3.0574,3.0599,3.0603,3.0606,3.0608,3.0572,3.0572,3.0547,3.0547,3.0547]}]]